Date String (YYYY-MM-DD hh:mm:ss) UTC,Instrument flags,absolute air pressure of the measurement (hPa),sample flow rate (lpm),inlet stack bypass flow (lpm),air temperature of the measurement (°C),ambient temperature measured by the external sensor (°C),aerosol sample conditioner tube jacket temperature (°C),OPC LED temperature (°C),internal box temperature (°C),relative humidity of the measurement (%),span deviation,mass concentration of particles derived from Lorenz-Mie calculation of OPC scattering (μg/m³),mass concentration of particles derived from Lorenz-Mie calculation of OPC scattering (μg/m³),mass concentration of particles derived from Lorenz-Mie calculation of OPC scattering (μg/m³)
DateTimeUTC,F1_M11,P_M11,Q1_M11,Q2_M11,T1_M11,T2_M11,T3_M11,T4_M11,T5_M11,U1_M11,ZSPAN_M11,X0_M11,X2_M11,X1_M11
2024-05-31 18:00:00,SystemResetWarning,0832.0,5.00,000.00,029.6,028.8,000.0,038.0,031.4,024.3,0000.0,0011.83,0005.76,0005.07
2024-05-31 18:01:00,SystemResetWarning,0832.0,4.99,000.00,029.6,028.9,000.0,038.0,031.4,024.0,0000.0,0012.26,0005.78,0005.10
2024-05-31 18:02:00,SystemResetWarning,0832.0,5.01,000.00,029.6,028.9,000.0,038.0,031.4,024.0,0000.0,0012.37,0005.78,0005.12
2024-05-31 18:03:00,SystemResetWarning,0831.9,5.00,000.00,029.6,028.9,000.0,038.0,031.4,023.7,0000.0,0012.18,0005.75,0005.13
2024-05-31 18:04:00,SystemResetWarning,0831.9,5.00,000.00,029.7,028.9,000.0,038.0,031.4,023.9,0000.0,0012.75,0005.73,0005.14
2024-05-31 18:05:00,SystemResetWarning,0831.9,5.01,000.00,029.7,028.9,000.0,038.0,031.4,024.0,0000.0,0012.91,0005.71,0005.14
2024-05-31 18:06:00,SystemResetWarning,0831.8,5.01,000.00,029.7,028.9,000.0,038.0,031.4,024.2,0000.0,0012.39,0005.70,0005.14
2024-05-31 18:07:00,SystemResetWarning,0831.8,5.00,000.00,029.7,028.9,000.0,038.0,031.5,024.5,0000.0,0012.53,0005.69,0005.16
2024-05-31 18:08:00,SystemResetWarning,0832.2,5.00,000.00,029.7,028.9,000.0,038.1,031.5,024.1,0000.0,0013.00,0005.73,0005.17
2024-05-31 18:09:00,SystemResetWarning,0832.0,5.00,000.00,029.7,028.9,000.0,038.1,031.5,023.5,0000.0,0013.35,0005.78,0005.21
2024-05-31 18:10:00,SystemResetWarning,0831.7,4.99,000.00,029.7,028.9,000.0,038.1,031.5,023.5,0000.0,0013.38,0005.82,0005.27
2024-05-31 18:11:00,SystemResetWarning,0831.6,5.00,000.00,029.7,028.9,000.0,038.1,031.5,023.9,0000.0,0013.57,0005.82,0005.29
2024-05-31 18:12:00,SystemResetWarning,0831.6,5.00,000.00,029.7,028.9,000.0,038.1,031.5,024.3,0000.0,0013.30,0005.83,0005.29
2024-05-31 18:13:00,SystemResetWarning,0831.6,4.99,000.00,029.7,029.0,000.0,038.1,031.5,024.7,0000.0,0013.89,0005.84,0005.28
2024-05-31 18:14:00,SystemResetWarning,0831.6,5.00,000.00,029.7,029.0,000.0,038.1,031.6,024.1,0000.0,0013.44,0005.81,0005.28
2024-05-31 18:15:00,SystemResetWarning,0831.6,5.00,000.00,029.7,029.0,000.0,038.1,031.6,024.7,0000.0,0012.66,0005.83,0005.29
2024-05-31 18:16:00,SystemResetWarning,0831.6,5.00,000.00,029.7,029.0,000.0,038.1,031.6,024.9,0000.0,0012.54,0005.87,0005.29
2024-05-31 18:17:00,SystemResetWarning,0831.6,5.00,000.00,029.8,029.0,000.0,038.1,031.6,024.3,0000.0,0012.74,0005.91,0005.30
2024-05-31 18:18:00,SystemResetWarning,0831.5,5.00,000.00,029.8,029.0,000.0,038.1,031.6,023.5,0000.0,0012.65,0005.97,0005.35
2024-05-31 18:19:00,SystemResetWarning,0831.5,5.00,000.00,029.8,029.0,000.0,038.1,031.6,023.6,0000.0,0012.35,0006.04,0005.42
2024-05-31 18:20:00,SystemResetWarning,0831.5,5.00,000.00,029.8,029.0,000.0,038.1,031.6,023.2,0000.0,0013.03,0006.07,0005.43
2024-05-31 18:21:00,SystemResetWarning,0831.5,5.00,000.00,029.8,029.0,000.0,038.1,031.6,023.8,0000.0,0013.06,0006.10,0005.46
2024-05-31 18:22:00,SystemResetWarning,0831.4,5.00,000.00,029.8,029.0,000.0,038.1,031.6,023.4,0000.0,0012.71,0006.11,0005.48
2024-05-31 18:23:00,SystemResetWarning,0831.4,5.00,000.00,029.8,029.0,000.0,038.1,031.6,023.7,0000.0,0012.70,0006.19,0005.53
2024-05-31 18:24:00,SystemResetWarning,0831.4,5.00,000.00,029.8,029.0,000.0,038.2,031.5,024.1,0000.0,0011.99,0006.28,0005.62
2024-05-31 18:25:00,SystemResetWarning,0831.4,5.00,000.00,029.8,029.0,000.0,038.2,031.6,023.8,0000.0,0011.88,0006.42,0005.70
2024-05-31 18:26:00,SystemResetWarning,0831.4,5.00,000.00,029.8,029.0,000.0,038.2,031.5,023.8,0000.0,0012.37,0006.54,0005.78
2024-05-31 18:27:00,SystemResetWarning,0831.4,5.00,000.00,029.8,029.0,000.0,038.2,031.5,024.9,0000.0,0013.01,0006.56,0005.84
2024-05-31 18:28:00,SystemResetWarning,0831.3,5.00,000.00,029.8,029.0,000.0,038.2,031.6,024.2,0000.0,0013.57,0006.54,0005.85
2024-05-31 18:29:00,SystemResetWarning,0831.3,5.00,000.00,029.8,029.0,000.0,038.2,031.6,024.5,0000.0,0013.47,0006.56,0005.84
2024-05-31 18:30:00,SystemResetWarning,0831.3,5.00,000.00,029.8,029.0,000.0,038.2,031.6,024.8,0000.0,0013.92,0006.59,0005.83
2024-05-31 18:31:00,SystemResetWarning,0831.3,5.00,000.00,029.8,029.0,000.0,038.2,031.6,024.6,0000.0,0013.62,0006.65,0005.84
2024-05-31 18:32:00,SystemResetWarning,0831.3,5.00,000.00,029.8,029.0,000.0,038.2,031.6,024.1,0000.0,0014.23,0006.64,0005.85
2024-05-31 18:33:00,SystemResetWarning,0831.3,4.99,000.00,029.8,029.0,000.0,038.2,031.6,023.7,0000.0,0014.32,0006.67,0005.87
2024-05-31 18:34:00,SystemResetWarning,0831.3,4.99,000.00,029.8,029.0,000.0,038.2,031.6,023.8,0000.0,0014.20,0006.68,0005.89
2024-05-31 18:35:00,SystemResetWarning,0831.3,5.00,000.00,029.8,029.0,000.0,038.2,031.6,024.0,0000.0,0014.17,0006.70,0005.93
2024-05-31 18:36:00,SystemResetWarning,0831.3,5.01,000.00,029.8,029.0,000.0,038.2,031.6,023.6,0000.0,0014.10,0006.73,0005.97
2024-05-31 18:37:00,SystemResetWarning,0831.2,5.01,000.00,029.8,029.0,000.0,038.2,031.6,023.7,0000.0,0014.00,0006.77,0006.02
2024-05-31 18:38:00,SystemResetWarning,0831.2,4.99,000.00,029.8,029.0,000.0,038.2,031.6,024.0,0000.0,0013.21,0006.84,0006.07
2024-05-31 18:39:00,SystemResetWarning,0831.1,4.99,000.00,029.8,029.0,000.0,038.2,031.6,024.2,0000.0,0013.00,0006.96,0006.16
2024-05-31 18:40:00,SystemResetWarning,0831.1,5.01,000.00,029.8,029.0,000.0,038.2,031.6,024.2,0000.0,0013.44,0007.04,0006.22
2024-05-31 18:41:00,SystemResetWarning,0831.1,5.01,000.00,029.8,029.1,000.0,038.2,031.6,024.0,0000.0,0013.07,0007.04,0006.29
2024-05-31 18:42:00,SystemResetWarning,0831.1,5.01,000.00,029.8,029.1,000.0,038.2,031.6,023.7,0000.0,0012.43,0007.03,0006.34
2024-05-31 18:43:00,SystemResetWarning,0831.1,4.99,000.00,029.8,029.1,000.0,038.2,031.6,023.8,0000.0,0011.87,0007.08,0006.40
2024-05-31 18:44:00,SystemResetWarning,0831.1,4.99,000.00,029.8,029.1,000.0,038.2,031.7,023.8,0000.0,0012.67,0007.12,0006.45
2024-05-31 18:45:00,SystemResetWarning,0831.2,5.00,000.00,029.8,029.1,000.0,038.2,031.6,023.9,0000.0,0013.67,0007.20,0006.50
2024-05-31 18:46:00,SystemResetWarning,0831.1,5.01,000.00,029.8,029.1,000.0,038.2,031.6,024.0,0000.0,0013.83,0007.26,0006.52
2024-05-31 18:47:00,SystemResetWarning,0831.1,5.01,000.00,029.8,029.1,000.0,038.2,031.6,024.1,-000.1,0013.83,0007.26,0006.53
2024-05-31 18:48:00,SystemResetWarning,0831.1,5.00,000.00,029.9,029.1,000.0,038.2,031.7,024.5,-000.2,0014.28,0007.23,0006.52
2024-05-31 18:49:00,SystemResetWarning,0831.1,5.00,000.00,029.9,029.1,000.0,038.2,031.7,024.0,-000.1,0014.69,0007.26,0006.51
2024-05-31 18:50:00,SystemResetWarning,0831.1,5.00,000.00,029.9,029.1,000.0,038.3,031.7,023.8,0000.3,0015.05,0007.29,0006.54
2024-05-31 18:51:00,SystemResetWarning,0831.1,4.99,000.00,029.9,029.1,000.0,038.3,031.7,023.7,0001.0,0014.45,0007.32,0006.59
2024-05-31 18:52:00,SystemResetWarning,0831.1,5.01,000.00,029.9,029.1,000.0,038.3,031.7,023.7,0001.2,0014.80,0007.38,0006.66
2024-05-31 18:53:00,SystemResetWarning,0831.0,5.01,000.00,029.9,029.1,000.0,038.3,031.7,023.7,0000.3,0014.87,0007.44,0006.72
2024-05-31 18:54:00,SystemResetWarning,0830.9,5.00,000.00,029.9,029.1,000.0,038.3,031.7,024.4,0000.0,0014.96,0007.50,0006.76
2024-05-31 18:55:00,SystemResetWarning,0830.9,4.99,000.00,029.9,029.1,000.0,038.3,031.7,024.3,0000.0,0014.81,0007.57,0006.78
2024-05-31 18:56:00,SystemResetWarning,0830.8,4.99,000.00,029.9,029.1,000.0,038.3,031.7,023.9,0000.0,0014.50,0007.62,0006.82
2024-05-31 18:57:00,SystemResetWarning,0830.8,4.99,000.00,029.9,029.1,000.0,038.3,031.7,023.8,0000.0,0014.80,0007.64,0006.87
2024-05-31 18:58:00,SystemResetWarning,0830.8,4.99,000.00,029.9,029.1,000.0,038.3,031.7,024.0,0000.0,0015.38,0007.72,0006.94
2024-05-31 18:59:00,SystemResetWarning,0830.9,5.00,000.00,029.9,029.1,000.0,038.3,031.7,024.3,0000.0,0015.32,0007.79,0007.02
